Startseite
Über Mich
AHP4
Galerie
Sehschlangen
Tourenbuch
Bookmarks
Elektronik
Bewertung
Geschichten
[Tagesmessung] [Jahreswerte] [Information]

Messwerte vom 08.02.2022

Die letzten Messwerte von 23:58:48 Uhr:
KategorieMesswert
Temperatur [°C]8
Luftdruck [mBar]1009
Sonneneinstrahlung0
Wind [km/h]4 aus Südwest
Niederschlag [l/m²]0
rel.Luftfeucht.96.6%
CO2 [ppm]600

Diagramme
Messwerte vom 08.02.2022
Tagesaggregation
KategorieMinimumMaximumSchnittSumme
Temperatur [°C]196.0125
Luftdruck [mBar]100510091006.5542
Sonneneinstrahlung21962.1250
Wind [km/h]26
rF [%]93.196.696.39
Niederschlag [l/m²]0.2575
CO2 [ppm]550870731.3
Einordnung alsKalter Tag

Messungen an benachbarten Tagen: Zur Jahresaggregation 2022
Tabelle aller Messwerte
UhrzeitTemperatur [°C]Luftdruck [mBar]SonneWind [km/h]RichtungRegen [l/m²]rF [%]CO2 [ppm]
00:01:46 1 1007 0 3 NW 0 96.6 606
00:04:47 1 1008 0 1 SO 0 96.6 608
00:07:46 1 1008 0 2 W 0 96.6 612
00:10:47 1 1008 0 3 NO 0 96.6 607
00:13:46 1 1008 0 0 NO 0 96.6 609
00:16:47 1 1008 0 9 SW 0 96.6 612
00:19:48 1 1008 0 4 SO 0 96.6 605
00:22:46 1 1008 0 5 O 0 96.6 609
00:25:47 1 1008 0 3 SW 0 96.6 615
00:28:48 1 1009 0 2 SO 0 96.6 613
00:31:47 1 1007 0 1 SO 0 96.6 612
00:34:48 1 1008 0 1 SO 0 96.6 621
00:37:47 1 1008 0 2 S 0 96.6 624
00:40:50 1 1008 0 1 SO 0 96.6 622
00:43:47 1 1008 0 3 SO 0 96.6 622
00:46:49 1 1008 0 2 SO 0 96.6 621
00:49:47 1 1009 0 4 SO 0 96.6 621
00:52:48 1 1008 0 1 SW 0 96.6 616
00:55:47 1 1008 0 2 S 0 96.6 622
00:58:50 1 1009 0 1 SO 0 96.6 622
01:01:47 1 1009 0 1 S 0 96.6 628
01:04:45 1 1008 0 4 S 0 96.6 629
01:07:47 1 1008 0 2 W 0 96.6 630
01:10:47 1 1008 0 0 SW 0 96.6 632
01:13:47 1 1007 0 2 SO 0 96.6 629
01:16:47 1 1007 0 1 NO 0 96.6 621
01:19:45 1 1007 0 2 SW 0 96.6 621
01:22:46 2 1008 0 1 SO 0 96.6 624
01:25:47 2 1008 0 1 S 0 96.6 623
01:28:45 2 1008 0 1 S 0 96.6 621
01:31:48 2 1008 0 3 S 0 96.6 630
01:34:46 2 1008 0 0 NO 0 96.6 621
01:37:46 2 1008 0 0 S 0 96.6 627
01:40:47 2 1007 0 5 S 0 96.6 629
01:43:48 2 1008 0 2 W 0 96.6 630
01:46:48 2 1008 0 0 SW 0 96.6 636
01:49:46 2 1008 0 0 S 0 96.6 638
01:52:46 2 1008 0 2 S 0 96.6 644
01:55:47 2 1008 0 0 SO 0 96.6 645
01:58:47 2 1007 0 2 SW 0 96.6 635
02:01:50 2 1007 0 1 SW 0 96.6 632
02:04:46 2 1008 0 3 SW 0 96.6 632
02:07:46 2 1007 0 0 S 0 96.6 627
02:10:50 2 1008 0 0 NO 0 96.6 635
02:13:49 2 1008 0 2 SO 0 96.6 635
02:16:46 2 1007 0 0 S 0 96.6 633
02:19:47 2 1008 0 2 SW 0 96.6 641
02:22:45 2 1007 0 2 O 0 96.6 648
02:25:46 2 1007 0 1 SW 0 96.6 644
02:29:57 2 1007 0 1 S 0 96.6 636
02:31:46 2 1007 0 4 S 0 96.6 630
02:35:04 2 1006 0 2 S 0 96.6 633
02:37:45 2 1006 0 3 S 0 96.6 645
02:42:50 2 1006 0 2 SW 0 96.6 647
02:44:01 2 1007 0 2 SO 0 96.6 645
02:46:48 2 1007 0 3 SO 0 96.6 656
02:49:49 2 1006 0 5 SW 0 96.6 660
02:52:46 2 1007 0 3 S 0 96.6 652
02:55:47 2 1007 0 1 S 0 96.6 655
02:58:48 2 1007 0 2 S 0 96.6 659
03:01:47 2 1007 0 2 SW 0 96.6 653
03:04:49 2 1006 0 3 O 0 96.6 660
03:07:46 2 1007 0 1 S 0 96.6 658
03:10:49 2 1007 0 1 SW 0 96.6 648
03:13:48 2 1006 0 3 S 0 96.6 651
03:16:46 2 1007 0 2 SW 0 96.6 654
03:19:46 2 1006 0 3 S 0 96.6 656
03:22:47 2 1006 0 3 W 0 96.6 666
03:25:50 3 1006 0 6 S 0 96.6 669
03:28:47 3 1006 0 2 SW 0 96.6 669
03:31:47 3 1006 0 2 S 0 96.6 674
03:34:47 3 1006 0 2 S 0 96.6 670
03:37:48 3 1006 0 0 S 0 96.6 659
03:40:48 3 1006 0 3 SW 0 96.6 653
03:43:48 3 1006 0 1 S 0 96.6 653
03:46:46 3 1006 0 2 S 0 96.6 655
03:49:48 3 1006 0 3 O 0 96.6 657
03:52:48 3 1006 0 2 NO 0 96.6 666
03:55:47 3 1006 0 2 S 0 96.6 674
03:58:48 3 1006 0 4 SO 0 96.6 662
04:01:50 3 1006 0 1 SW 0 96.6 659
04:04:50 3 1006 0 3 SO 0 96.6 656
04:07:49 3 1006 0 6 S 0 96.6 659
04:10:48 3 1006 0 2 W 0 96.6 668
04:13:49 3 1006 0 5 SO 0 96.6 662
04:16:47 3 1006 0 3 SW 0 96.6 658
04:19:46 3 1006 0 4 S 0 96.5 666
04:22:48 4 1006 0 3 S 0 96.4 671
04:25:46 4 1006 0 3 S 0 96.5 672
04:28:49 4 1006 0 3 SW 0 96.6 674
04:31:48 4 1006 0 3 N 0 96.6 683
04:34:49 4 1006 0 4 NW 0 96.5 683
04:37:48 4 1006 0 7 S 0 96 681
04:40:47 4 1006 0 10 W 0 95.5 680
04:43:47 4 1006 0 11 S 0 95.6 669
04:46:47 4 1006 0 6 S 0 95.8 673
04:49:47 4 1006 0 4 S 0 96.2 680
04:52:49 4 1006 0 8 SO 0 96.6 694
04:55:48 4 1006 0 5 SO 0 96.6 686
04:58:49 4 1006 0 6 SO 0 96.6 671
05:01:47 4 1006 0 4 S 0 96.6 674
05:04:48 4 1006 0 2 SW 0 96.6 671
05:07:47 4 1006 0 2 SO 0 96.6 676
05:10:46 3 1006 0 3 S 0 96.6 674
05:13:45 3 1006 0 4 N 0 96.6 679
05:16:46 3 1006 0 2 S 0 96.6 679
05:19:48 3 1006 0 8 S 0 96.6 688
05:22:49 3 1006 0 2 SO 0 96.6 689
05:25:46 3 1006 0 3 W 0 96.6 682
05:28:45 3 1006 0 6 S 0 96.6 674
05:31:49 3 1006 0 5 SO 0 96.6 685
05:34:48 3 1006 0 3 SW 0 96.6 689
05:37:46 3 1006 0 1 S 0 96.6 687
05:40:47 3 1006 0 2 SO 0 96.6 679
05:43:47 3 1006 0 5 S 0 96.6 682
05:46:48 3 1006 0 2 SW 0 96.6 691
05:49:45 3 1006 0 2 S 0 96.6 699
05:52:47 3 1006 0 5 NO 0 96.6 703
05:55:47 3 1006 0 3 O 0 96.6 694
05:58:51 3 1006 0 21 NW 0 96.6 689
06:01:48 3 1006 0 5 SW 0 96.6 692
06:04:47 3 1006 0 12 O 0 96.6 692
06:07:50 3 1006 0 1 SW 0 96.6 690
06:10:47 3 1006 0 3 S 0 96.6 695
06:13:46 3 1006 0 2 S 0 96.6 701
06:16:49 3 1006 0 2 O 0 96.6 700
06:19:50 3 1006 0 14 SW 0 96.6 700
06:22:47 3 1006 0 2 S 0 96.6 692
06:25:48 3 1006 0 3 SW 0 96.6 682
06:28:45 3 1006 0 3 SO 0 96.6 685
06:31:48 3 1006 0 8 SO 0 96.6 691
06:34:48 3 1006 0 9 SW 0 96.6 697
06:37:47 3 1006 0 6 SW 0 96.6 700
06:40:47 3 1006 0 7 W 0 96.6 706
06:43:47 4 1006 0 5 SW 0 96.6 709
06:46:46 4 1006 0 5 SW 0 96.6 712
06:49:47 4 1006 0 2 S 0 96.6 700
06:52:48 4 1006 0 14 W 0 96.6 701
06:55:47 4 1006 0 5 SW 0 96.6 695
06:58:46 4 1006 0 4 N 0 96.6 706
07:01:48 4 1006 0 6 S 0 96.6 701
07:04:48 4 1006 0 6 S 0.2575 96.6 697
07:07:46 4 1006 0 8 W 0 96.6 697
07:10:50 4 1006 0 13 NW 0 96.6 690
07:13:46 4 1006 0 5 W 0 96.6 685
07:16:47 4 1006 0 8 SW 0 96.6 685
07:19:48 4 1006 0 5 SW 0 96.6 695
07:22:47 4 1006 0 7 O 0 96.6 736
07:25:47 4 1006 0 7 NO 0 96.6 752
07:28:48 4 1006 4 6 N 0 96.6 752
07:31:47 4 1006 5 8 SW 0 96.6 762
07:34:45 4 1005 8 5 0 96.6 762
07:37:47 4 1006 12 5 S 0 96.6 759
07:40:46 4 1006 18 7 S 0 96.6 758
07:43:48 4 1006 20 19 W 0 96.6 736
07:46:47 4 1006 26 9 S 0 96.6 706
07:49:46 4 1005 29 5 W 0 96.6 703
07:52:49 4 1006 35 5 S 0 96.6 729
07:55:44 4 1006 42 11 S 0 96.6 737
07:58:49 4 1005 42 10 SO 0 96.6 734
08:01:48 4 1006 47 5 O 0 96.6 721
08:04:47 4 1006 49 5 S 0 96.6 718
08:07:47 4 1006 56 6 W 0 96.6 707
08:10:48 4 1006 65 7 S 0 96.6 703
08:13:48 4 1005 68 1 NW 0 96.6 702
08:16:47 4 1005 71 5 SW 0 96.6 700
08:19:50 4 1006 79 5 NO 0 96.6 688
08:22:47 4 1006 91 4 SW 0 96.6 693
08:25:47 4 1006 89 5 S 0 96.6 698
08:28:47 4 1006 95 7 NW 0 96.6 685
08:31:48 4 1006 101 18 W 0 96.6 680
08:34:50 4 1006 111 13 SW 0 96.6 670
08:37:48 4 1005 105 6 SW 0 96.6 668
08:40:50 4 1006 117 7 NO 0 96.6 665
08:43:48 4 1006 107 5 SW 0 96.6 674
08:46:48 4 1006 114 4 S 0 96.6 690
08:49:49 4 1006 112 4 W 0 96.6 698
08:52:48 5 1006 116 10 SO 0 96.6 703
08:55:48 5 1006 118 1 SW 0 96.6 705
08:58:50 5 1006 120 4 SW 0 96.6 704
09:01:48 5 1006 126 4 O 0 96.6 697
09:04:49 5 1006 129 5 SW 0 96.6 697
09:07:51 5 1006 128 2 SW 0 96.6 695
09:10:46 5 1006 129 5 N 0 96.6 696
09:13:48 5 1006 124 3 S 0 96.6 695
09:16:47 5 1005 124 3 SW 0 96.6 693
09:19:46 5 1006 134 13 S 0 96.6 700
09:22:49 5 1006 131 8 S 0 96.6 703
09:25:48 5 1006 134 5 S 0 96.6 723
09:28:46 5 1006 146 1 S 0 96.6 729
09:31:49 5 1006 151 3 S 0 96.6 727
09:34:47 5 1006 154 6 W 0 96.6 717
09:37:49 5 1006 157 4 SO 0 96.6 706
09:40:50 5 1006 155 5 NO 0 96.6 705
09:43:50 5 1006 165 10 SW 0 96.6 706
09:46:49 5 1006 158 2 NW 0 96.6 708
09:49:47 6 1005 175 5 O 0 96.6 709
09:52:48 6 1006 178 4 SO 0 96.6 708
09:55:50 6 1006 186 3 S 0 96.6 708
09:58:49 6 1006 192 9 NW 0 96.6 716
10:01:48 6 1006 190 1 NO 0 96.6 717
10:04:47 6 1006 192 4 S 0 96.6 721
10:07:50 6 1005 199 3 S 0 96.6 720
10:10:47 6 1006 204 5 W 0 96.6 724
10:13:46 6 1006 199 3 W 0 96.6 731
10:16:47 7 1006 191 4 SW 0 96.6 741
10:19:49 7 1005 203 7 SW 0 96.6 741
10:22:49 7 1006 207 6 SO 0 96.6 741
10:25:49 7 1006 193 4 W 0 96.6 732
10:28:52 7 1006 195 5 NO 0 96.6 745
10:31:47 7 1005 196 7 S 0 96.6 753
10:34:46 7 1006 195 5 S 0 96.6 762
10:37:48 7 1006 190 7 SW 0 96.6 766
10:40:46 7 1006 196 5 NO 0 96.6 764
10:43:48 7 1006 194 4 W 0 96.6 777
10:46:48 7 1006 207 7 SO 0 96.6 782
10:49:51 7 1006 205 3 SO 0 96.6 788
10:52:47 7 1006 199 3 SW 0 96.6 794
10:55:46 7 1005 201 7 S 0 96.6 787
10:58:46 7 1006 198 4 S 0 96.6 787
11:01:49 7 1006 205 8 SW 0 96.6 794
11:04:48 8 1006 200 10 O 0 96.6 801
11:07:48 8 1006 197 3 W 0 96.6 802
11:10:52 8 1006 205 3 S 0 96.6 802
11:13:48 8 1006 198 3 SW 0 96.6 790
11:16:49 8 1006 204 4 SO 0 96.6 810
11:19:49 8 1006 212 5 SW 0 96.6 814
11:22:49 8 1005 210 11 S 0 96.6 813
11:25:48 8 1006 201 2 W 0 96.6 812
11:28:49 8 1006 201 2 SW 0 96.6 794
11:31:48 8 1006 199 4 SW 0 96.6 805
11:34:47 8 1006 208 3 SO 0 96.6 801
11:37:48 8 1005 206 11 W 0 96.6 802
11:40:50 8 1005 219 4 NW 0 96.6 808
11:43:48 8 1006 199 6 SW 0 96.6 809
11:46:50 8 1006 199 2 W 0 96.4 808
11:49:49 8 1006 200 2 W 0 96.4 805
11:52:50 8 1006 206 11 SO 0 96.6 800
11:55:47 8 1006 213 11 SW 0 96.5 802
11:58:46 9 1006 213 2 S 0 96.4 806
12:01:51 9 1006 205 10 SW 0 96.1 806
12:04:49 9 1006 197 5 W 0 95.6 802
12:07:49 9 1006 202 7 S 0 95.1 805
12:10:50 9 1006 206 7 S 0 95.3 801
12:13:50 9 1006 210 6 NW 0 94.8 808
12:16:50 9 1006 207 3 SO 0 95.6 802
12:19:51 9 1006 194 2 SO 0 95.7 808
12:22:49 8 1006 191 5 NW 0 95.8 797
12:25:50 8 1006 203 7 SO 0 95.8 787
12:28:47 8 1006 190 9 O 0 96.6 779
12:31:49 8 1006 182 2 NW 0 96.6 784
12:34:48 8 1006 191 7 S 0 96.6 787
12:37:48 8 1006 185 6 N 0 96.6 797
12:40:48 8 1006 186 4 SW 0 96.6 811
12:43:49 8 1006 186 12 SW 0 96.6 813
12:46:51 8 1006 185 6 S 0 96.6 818
12:49:48 8 1006 186 8 W 0 96.6 822
12:52:50 8 1006 189 11 NW 0 96.6 832
12:55:49 8 1006 192 4 O 0 96.6 826
12:58:50 8 1006 192 11 NO 0 96.6 828
13:01:47 9 1006 188 2 N 0 96.5 832
13:04:48 9 1006 202 3 S 0 96.4 839
13:07:46 9 1006 205 3 O 0 96 843
13:10:48 9 1006 192 14 W 0 95.4 838
13:13:47 9 1006 188 7 W 0 94.4 838
13:16:49 9 1006 191 1 W 0 94.2 842
13:19:49 9 1006 190 18 W 0 94.4 838
13:22:49 9 1006 191 5 NO 0 94.1 833
13:25:48 9 1006 195 2 O 0 94 826
13:28:48 9 1006 194 3 NW 0 94.2 828
13:31:49 9 1006 187 3 SW 0 94.1 826
13:34:47 9 1006 190 5 O 0 94 831
13:37:48 9 1006 183 6 S 0 93.9 832
13:40:50 9 1005 191 3 SO 0 94.1 840
13:43:49 9 1006 195 10 SW 0 94.1 841
13:46:49 9 1006 202 7 NW 0 93.7 847
13:49:48 9 1005 194 7 S 0 93.7 846
13:52:48 9 1006 200 8 SW 0 93.8 848
13:55:49 9 1005 196 12 SO 0 94 844
13:58:48 9 1006 198 2 N 0 93.6 843
14:01:47 9 1005 196 7 W 0 93.5 849
14:04:50 9 1006 200 7 SW 0 93.5 850
14:07:47 9 1006 196 5 SO 0 93.1 855
14:10:50 9 1005 191 2 SW 0 93.4 848
14:13:47 9 1006 189 5 S 0 93.6 840
14:16:48 9 1005 193 8 SO 0 93.7 831
14:19:48 9 1006 187 7 SO 0 93.6 832
14:22:49 9 1006 180 19 NW 0 93.5 837
14:25:48 9 1006 184 6 NW 0 93.9 843
14:28:49 9 1006 172 11 SW 0 93.9 855
14:31:49 9 1005 180 9 W 0 93.9 851
14:34:47 9 1006 182 10 N 0 94 849
14:37:51 9 1006 185 15 NW 0 94.4 842
14:40:50 9 1006 182 13 SW 0 94.6 843
14:43:48 9 1006 180 7 SW 0 94.8 843
14:46:48 9 1006 168 8 NW 0 95.4 847
14:49:53 9 1006 179 12 NO 0 96.1 848
14:52:46 9 1006 174 15 W 0 96.4 858
14:55:50 9 1005 178 3 SW 0 96.6 851
14:58:48 9 1006 163 0 S 0 96.6 852
15:01:49 9 1006 160 4 NO 0 96.6 848
15:04:50 9 1006 160 20 SW 0 96.6 840
15:07:48 9 1006 153 16 SW 0 96.6 835
15:10:51 9 1006 157 10 N 0 96.6 823
15:13:47 9 1006 156 7 W 0 96.6 817
15:16:48 9 1006 152 10 W 0 96.6 820
15:19:49 9 1006 152 10 W 0 96.6 824
15:22:50 9 1006 153 9 W 0 96.6 829
15:25:47 9 1006 152 5 W 0 96.6 838
15:28:49 9 1006 147 16 W 0 96.6 843
15:31:48 8 1006 165 2 W 0 96.6 852
15:34:48 8 1006 149 7 O 0 96.6 849
15:37:49 8 1006 151 3 SW 0 96.6 856
15:40:47 8 1006 145 4 S 0 96.6 854
15:43:48 8 1006 133 3 SW 0 96.6 858
15:46:47 8 1006 144 3 O 0 96.6 861
15:49:51 8 1006 137 2 NW 0 96.6 857
15:52:47 8 1006 140 1 O 0 96.6 852
15:55:48 8 1006 134 5 SW 0 96.6 850
15:58:48 8 1006 140 6 SW 0 96.6 849
16:01:49 8 1006 134 6 SO 0 96.6 850
16:04:47 8 1006 130 4 W 0 96.6 844
16:07:48 8 1006 131 8 W 0 96.6 847
16:10:49 8 1006 106 8 W 0 96.6 843
16:13:48 8 1006 120 8 SW 0 96.6 849
16:16:49 8 1006 123 0 N 0 96.6 855
16:19:50 8 1006 115 7 W 0 96.6 856
16:22:49 8 1006 103 5 NW 0 96.6 862
16:25:49 8 1006 101 2 SW 0 96.6 864
16:28:47 8 1006 96 13 W 0 96.6 870
16:31:46 8 1006 97 6 W 0 96.6 868
16:34:47 8 1006 81 3 NW 0 96.6 864
16:37:50 8 1006 94 26 SO 0 96.6 853
16:40:50 8 1006 86 10 NW 0 96.6 853
16:43:50 8 1006 88 8 SW 0 96.6 856
16:46:51 8 1006 86 6 NW 0 96.6 859
16:49:47 8 1006 83 5 S 0 96.6 850
16:52:46 8 1006 74 4 N 0 96.6 855
16:55:48 8 1006 67 7 SO 0 96.6 846
16:58:47 8 1006 59 8 W 0 96.6 835
17:01:49 8 1006 61 8 SW 0 96.6 828
17:04:50 8 1006 57 14 S 0 96.6 832
17:07:45 8 1006 44 3 S 0 96.6 840
17:10:49 8 1006 40 7 S 0 96.6 852
17:13:48 8 1006 36 12 SW 0 96.6 855
17:16:48 8 1006 32 14 SO 0 96.6 852
17:19:48 8 1006 22 10 S 0 96.6 849
17:22:45 8 1006 21 6 SW 0 96.6 841
17:25:47 8 1006 15 13 S 0 96.6 850
17:28:48 8 1006 12 4 NW 0 96.6 849
17:31:49 8 1006 10 2 NW 0 96.6 852
17:34:47 8 1006 6 11 W 0 96.6 849
17:37:48 8 1006 3 4 W 0 96.6 850
17:40:47 8 1006 0 6 SO 0 96.6 834
17:43:49 8 1006 0 19 W 0 96.6 829
17:46:46 8 1006 0 11 NW 0 96.6 825
17:49:44 8 1006 0 19 0 96.6 768
17:52:47 8 1006 0 1 NO 0 96.6 595
17:55:48 8 1006 0 16 S 0 96.6 612
17:58:46 8 1006 0 5 S 0 96.6 693
18:01:47 8 1006 0 3 N 0 96.6 725
18:04:46 8 1006 0 7 NW 0 96.6 728
18:07:47 8 1006 0 15 S 0 96.6 715
18:10:46 8 1006 0 3 S 0 96.6 705
18:13:46 8 1007 0 12 W 0 96.6 708
18:16:49 8 1007 0 9 SO 0 96.6 712
18:19:46 8 1006 0 18 S 0 96.6 720
18:22:47 8 1006 0 5 S 0 96.6 732
18:25:46 8 1006 0 7 S 0 96.6 739
18:28:46 8 1006 0 9 W 0 96.6 741
18:31:45 8 1007 0 7 S 0 96.6 741
18:34:49 8 1006 0 13 SW 0 96.6 739
18:37:48 8 1006 0 1 NO 0 96.6 735
18:40:49 8 1006 0 5 NW 0 96.6 737
18:43:49 8 1006 0 8 W 0 96.6 729
18:46:48 8 1007 0 15 NW 0 96.6 729
18:49:49 8 1006 0 10 SO 0 96.6 723
18:52:48 8 1006 0 9 NW 0 96.6 718
18:55:47 8 1007 0 4 S 0 96.6 718
18:58:46 8 1006 0 4 SW 0 96.6 713
19:01:45 8 1007 0 4 W 0 96.6 720
19:04:46 8 1006 0 9 W 0 96.6 720
19:07:46 8 1006 0 1 S 0 96.6 726
19:10:47 8 1006 0 1 S 0 96.6 735
19:13:46 8 1006 0 2 SW 0 96.6 743
19:16:46 8 1007 0 1 W 0 96.6 738
19:19:48 8 1006 0 7 W 0 96.6 750
19:22:46 8 1006 0 6 W 0 96.6 759
19:25:50 8 1008 0 5 SW 0 96.6 764
19:28:46 8 1007 0 13 0 96.6 770
19:31:45 8 1006 0 7 O 0 96.6 762
19:34:46 8 1006 0 9 W 0 96.6 770
19:37:48 8 1007 0 3 W 0 96.6 768
19:40:46 8 1006 0 6 NW 0 96.6 762
19:43:47 8 1007 0 3 NW 0 96.6 746
19:46:47 8 1008 0 3 W 0 96.6 739
19:49:49 8 1007 0 20 W 0 96.6 746
19:52:46 8 1007 0 5 S 0 96.6 751
19:55:48 8 1007 0 1 N 0 96.6 759
19:58:48 8 1007 0 2 NO 0 96.6 762
20:01:47 8 1007 0 2 N 0 96.6 762
20:04:49 8 1007 0 8 SW 0 96.6 761
20:07:48 8 1007 0 21 NO 0 96.6 765
20:10:49 8 1008 0 5 SW 0 96.6 764
20:13:47 8 1008 0 12 W 0 96.6 767
20:16:47 8 1008 0 6 W 0 96.6 773
20:19:48 8 1007 0 14 SW 0 96.6 777
20:22:49 8 1007 0 4 W 0 96.6 772
20:25:47 8 1007 0 7 SW 0 96.6 772
20:28:47 8 1007 0 8 SO 0 96.6 766
20:31:46 8 1008 0 8 W 0 96.6 766
20:34:48 8 1007 0 11 NO 0 96.6 758
20:37:48 8 1008 0 16 S 0 96.6 754
20:40:46 8 1008 0 8 W 0 96.6 755
20:43:46 8 1008 0 7 W 0 96.6 769
20:46:48 8 1008 0 3 NO 0 96.6 776
20:49:49 8 1008 0 10 SW 0 96.6 775
20:52:50 8 1007 0 2 NW 0 96.6 781
20:55:47 8 1008 0 7 SO 0 96.6 794
20:58:47 8 1008 0 5 N 0 96.6 809
21:01:51 8 1008 0 6 NW 0 96.6 819
21:04:50 8 1008 0 11 W 0 96.6 825
21:07:47 8 1008 0 3 S 0 96.6 837
21:10:49 8 1009 0 6 W 0 96.6 832
21:13:50 8 1008 0 9 SW 0 96.6 830
21:16:45 8 1008 0 1 N 0 96.6 819
21:19:47 8 1008 0 4 S 0 96.6 809
21:22:49 8 1008 0 8 W 0 96.6 806
21:25:49 8 1008 0 3 W 0 96.6 799
21:28:46 8 1008 0 2 SW 0 96.6 800
21:31:48 8 1008 0 15 SW 0 96.6 808
21:34:48 8 1007 0 6 W 0 96.6 824
21:37:47 8 1008 0 2 SW 0 96.6 827
21:40:48 8 1008 0 2 NW 0 96.6 833
21:43:49 8 1007 0 5 SO 0 96.6 820
21:46:48 8 1008 0 2 SO 0 96.6 821
21:49:50 8 1008 0 10 W 0 96.6 627
21:52:48 8 1008 0 18 O 0 96.6 633
21:55:47 8 1008 0 4 SO 0 96.6 637
21:58:45 8 1009 0 8 N 0 96.6 644
22:01:47 8 1008 0 4 O 0 96.6 650
22:04:49 8 1009 0 5 NW 0 96.6 644
22:07:46 8 1008 0 2 S 0 96.6 638
22:10:47 8 1007 0 6 W 0 96.6 628
22:13:48 8 1009 0 2 S 0 96.6 625
22:16:48 8 1008 0 3 W 0 96.6 633
22:19:48 8 1008 0 1 S 0 96.6 640
22:22:47 8 1009 0 3 SW 0 96.6 642
22:25:47 8 1008 0 5 SW 0 96.6 639
22:28:46 8 1008 0 3 O 0 96.6 647
22:31:47 8 1009 0 2 SW 0 96.6 651
22:34:49 8 1009 0 13 NW 0 96.6 647
22:37:48 8 1008 0 7 SW 0 96.6 647
22:40:49 8 1008 0 6 SO 0 96.6 642
22:43:51 8 1008 0 10 SW 0 96.6 642
22:46:47 8 1009 0 8 SW 0 96.6 645
22:49:48 8 1009 0 12 SW 0 96.6 645
22:52:47 8 1009 0 6 W 0 96.6 641
22:55:48 8 1008 0 7 S 0 96.6 647
22:58:46 8 1008 0 5 SW 0 96.6 650
23:01:48 8 1008 0 9 S 0 96.6 657
23:04:48 8 1009 0 5 SW 0 96.6 653
23:07:48 8 1008 0 4 NO 0 96.6 619
23:10:47 8 1009 0 4 SW 0 96.6 566
23:13:48 8 1008 0 17 NO 0 96.6 550
23:16:47 8 1008 0 3 S 0 96.6 572
23:19:51 8 1008 0 3 NO 0 96.6 592
23:22:50 8 1008 0 5 SO 0 96.6 609
23:25:48 8 1009 0 7 SW 0 96.6 609
23:28:49 8 1009 0 22 SW 0 96.6 618
23:31:45 8 1009 0 3 N 0 96.6 607
23:34:47 8 1009 0 3 S 0 96.6 604
23:37:47 8 1009 0 2 SW 0 96.6 604
23:40:48 8 1009 0 4 S 0 96.6 605
23:43:48 8 1008 0 4 SW 0 96.6 606
23:46:47 8 1008 0 2 S 0 96.6 603
23:49:48 8 1009 0 6 SO 0 96.6 606
23:52:47 8 1009 0 1 NO 0 96.6 603
23:55:47 8 1009 0 6 S 0 96.6 592
23:58:48 8 1009 0 4 SW 0 96.6 600

Letzte Änderung : 22-Jul-2022
Copyright Jens Köhler, Wolfsburg, Obere Dorfstraße 10d